{"data":{"norad_id":55946,"epoch":"2026-09-20T22:00:03.000096Z","epoch_age_seconds":70151,"freshness":"FRESH","line1":"1 55946U 23037AJ  26263.91670139  .00023886  00000+0  17539-2 0  9992","line2":"2 55946  70.0026 152.0977 0002448 320.7209 143.7051 15.03405389  5675","mean_motion":15.03405389,"eccentricity":0.0002448,"inclination_deg":70.0026,"raan_deg":152.0977,"arg_perigee_deg":320.7209,"mean_anomaly_deg":143.7051,"bstar":0.0017539,"rev_number":567,"period_min":95.782548774674,"perigee_km":554.70726482571,"apogee_km":558.1024165109,"semimajor_km":6934.5418406683,"source":"CELESTRAK","updated_at":"2026-09-21T09:00:33.344800Z"}}